Hourly Weather Santa Fe

Today, 10 July, Friday

Time Temperature Precipitation Wind Pressure Humidity
00:00 +8°C° 0 mm 5 mps 759 mmHg 79%
01:00 +8°C° 0 mm 5 mps 758 mmHg 78%
02:00 +8°C° 0 mm 6 mps 758 mmHg 78%
03:00 +8°C° 0 mm 6 mps 757 mmHg 80%
04:00 +7°C° 0 mm 5 mps 757 mmHg 82%
05:00 +7°C° 0 mm 5 mps 756 mmHg 84%
06:00 +7°C° 0 mm 5 mps 756 mmHg 84%
07:00 +7°C° 0 mm 5 mps 756 mmHg 84%
08:00 +7°C° 0 mm 5 mps 757 mmHg 84%
09:00 +9°C° 0 mm 5 mps 756 mmHg 79%
10:00 +12°C° 0 mm 4 mps 756 mmHg 73%
11:00 +14°C° 0 mm 4 mps 756 mmHg 67%
12:00 +15°C° 0 mm 4 mps 756 mmHg 65%
13:00 +17°C° 0 mm 3 mps 755 mmHg 62%
14:00 +18°C° 0 mm 3 mps 754 mmHg 60%
15:00 +17°C° 0 mm 2 mps 755 mmHg 64%
16:00 +16°C° 0 mm 1 mps 755 mmHg 69%
17:00 +14°C° 0 mm 0 mps 755 mmHg 73%
18:00 +15°C° 0 mm 1 mps 756 mmHg 72%
19:00 +15°C° 0 mm 1 mps 757 mmHg 72%
20:00 +15°C° 0 mm 2 mps 758 mmHg 71%
21:00 +15°C° 0 mm 2 mps 758 mmHg 71%
22:00 +14°C° 0 mm 3 mps 759 mmHg 71%
23:00 +14°C° 0 mm 3 mps 760 mmHg 70%

Tomorrow, 11 July, Saturday

Time Temperature Precipitation Wind Pressure Humidity
00:00 +13°C° 0 mm 3 mps 760 mmHg 74%
01:00 +12°C° 0 mm 3 mps 760 mmHg 77%
02:00 +10°C° 0 mm 3 mps 760 mmHg 81%
03:00 +10°C° 0 mm 3 mps 760 mmHg 81%
04:00 +9°C° 0 mm 3 mps 760 mmHg 81%
05:00 +9°C° 0 mm 2 mps 760 mmHg 81%
06:00 +9°C° 0 mm 2 mps 761 mmHg 80%
07:00 +9°C° 0 mm 2 mps 761 mmHg 78%
08:00 +9°C° 0 mm 2 mps 761 mmHg 77%
09:00 +12°C° 0 mm 2 mps 761 mmHg 65%
10:00 +14°C° 0 mm 2 mps 761 mmHg 53%
11:00 +16°C° 0 mm 2 mps 761 mmHg 41%
12:00 +17°C° 0 mm 2 mps 760 mmHg 38%
13:00 +18°C° 0 mm 2 mps 759 mmHg 35%
14:00 +18°C° 0 mm 2 mps 759 mmHg 32%
15:00 +17°C° 0 mm 2 mps 758 mmHg 37%
16:00 +16°C° 0 mm 2 mps 758 mmHg 42%
17:00 +15°C° 0 mm 2 mps 757 mmHg 48%
18:00 +14°C° 0 mm 2 mps 757 mmHg 51%
19:00 +13°C° 0 mm 2 mps 758 mmHg 55%
20:00 +12°C° 0 mm 1 mps 758 mmHg 58%
21:00 +12°C° 0 mm 2 mps 758 mmHg 60%
22:00 +10°C° 0 mm 2 mps 758 mmHg 61%
23:00 +10°C° 0 mm 2 mps 759 mmHg 63%

Day after tomorrow, 12 July, Sunday

Time Temperature Precipitation Wind Pressure Humidity
00:00 +10°C° 0 mm 2 mps 759 mmHg 62%
01:00 +12°C° 0 mm 2 mps 758 mmHg 62%
02:00 +12°C° 0 mm 2 mps 758 mmHg 61%
03:00 +12°C° 0 mm 2 mps 758 mmHg 61%
04:00 +10°C° 0 mm 2 mps 758 mmHg 62%
05:00 +10°C° 0 mm 2 mps 758 mmHg 62%
06:00 +10°C° 0 mm 2 mps 758 mmHg 61%
07:00 +10°C° 0 mm 2 mps 758 mmHg 60%
08:00 +12°C° 0 mm 2 mps 759 mmHg 60%
09:00 +13°C° 0 mm 2 mps 759 mmHg 54%
10:00 +15°C° 0 mm 2 mps 760 mmHg 49%
11:00 +16°C° 0 mm 2 mps 760 mmHg 44%
12:00 +17°C° 0 mm 2 mps 759 mmHg 43%
13:00 +18°C° 0 mm 2 mps 759 mmHg 42%
14:00 +18°C° 0 mm 3 mps 759 mmHg 41%
15:00 +17°C° 0 mm 3 mps 759 mmHg 45%
16:00 +16°C° 0 mm 3 mps 759 mmHg 49%
17:00 +14°C° 0 mm 2 mps 759 mmHg 53%
18:00 +14°C° 0 mm 2 mps 760 mmHg 55%
19:00 +12°C° 0 mm 3 mps 760 mmHg 57%
20:00 +11°C° 0 mm 3 mps 761 mmHg 59%
21:00 +10°C° 0 mm 3 mps 761 mmHg 61%
22:00 +10°C° 0 mm 3 mps 762 mmHg 64%
23:00 +9°C° 0 mm 3 mps 763 mmHg 66%

13 July, Monday

Time Temperature Precipitation Wind Pressure Humidity
00:00 +9°C° 0 mm 3 mps 763 mmHg 67%
01:00 +8°C° 0 mm 3 mps 763 mmHg 67%
02:00 +8°C° 0 mm 3 mps 764 mmHg 67%
03:00 +7°C° 0 mm 3 mps 764 mmHg 67%
04:00 +7°C° 0 mm 3 mps 765 mmHg 66%
05:00 +7°C° 0 mm 3 mps 765 mmHg 66%
06:00 +7°C° 0 mm 2 mps 766 mmHg 67%
07:00 +7°C° 0 mm 2 mps 766 mmHg 67%
08:00 +7°C° 0 mm 2 mps 767 mmHg 68%
09:00 +8°C° 0 mm 2 mps 768 mmHg 60%
10:00 +10°C° 0 mm 2 mps 768 mmHg 51%
11:00 +13°C° 0 mm 2 mps 769 mmHg 43%
12:00 +13°C° 0 mm 2 mps 768 mmHg 41%
13:00 +14°C° 0 mm 2 mps 768 mmHg 38%
14:00 +15°C° 0 mm 2 mps 767 mmHg 36%
15:00 +14°C° 0 mm 1 mps 767 mmHg 40%
16:00 +13°C° 0 mm 1 mps 767 mmHg 44%
17:00 +12°C° 0 mm 1 mps 766 mmHg 48%
18:00 +11°C° 0 mm 1 mps 767 mmHg 49%
19:00 +10°C° 0 mm 1 mps 767 mmHg 50%
20:00 +9°C° 0 mm 1 mps 767 mmHg 52%
21:00 +9°C° 0 mm 1 mps 767 mmHg 54%
22:00 +8°C° 0 mm 1 mps 767 mmHg 56%
23:00 +7°C° 0 mm 2 mps 767 mmHg 59%

14 July, Tuesday

Time Temperature Precipitation Wind Pressure Humidity
00:00 +7°C° 0 mm 2 mps 767 mmHg 62%
01:00 +6°C° 0 mm 2 mps 767 mmHg 64%
02:00 +6°C° 0 mm 2 mps 767 mmHg 67%
03:00 +6°C° 0 mm 2 mps 767 mmHg 69%
04:00 +5°C° 0 mm 2 mps 766 mmHg 71%
05:00 +5°C° 0 mm 2 mps 766 mmHg 73%
06:00 +5°C° 0 mm 2 mps 766 mmHg 72%
07:00 +5°C° 0 mm 3 mps 767 mmHg 71%
08:00 +5°C° 0 mm 3 mps 767 mmHg 71%
09:00 +8°C° 0 mm 3 mps 767 mmHg 64%
10:00 +10°C° 0 mm 3 mps 767 mmHg 57%
11:00 +12°C° 0 mm 3 mps 767 mmHg 50%
12:00 +13°C° 0 mm 3 mps 766 mmHg 48%
13:00 +14°C° 0 mm 3 mps 765 mmHg 46%
14:00 +16°C° 0 mm 3 mps 764 mmHg 44%
15:00 +14°C° 0 mm 3 mps 764 mmHg 48%
16:00 +13°C° 0 mm 3 mps 763 mmHg 53%
17:00 +13°C° 0 mm 2 mps 763 mmHg 57%
18:00 +11°C° 0 mm 3 mps 763 mmHg 60%
19:00 +10°C° 0 mm 3 mps 763 mmHg 62%
20:00 +9°C° 0 mm 3 mps 763 mmHg 65%
21:00 +9°C° 0 mm 3 mps 763 mmHg 66%
22:00 +8°C° 0 mm 3 mps 763 mmHg 68%
23:00 +8°C° 0 mm 3 mps 763 mmHg 69%

15 July, Wednesday

Time Temperature Precipitation Wind Pressure Humidity
00:00 +7°C° 0 mm 3 mps 763 mmHg 69%
01:00 +7°C° 0 mm 3 mps 762 mmHg 69%
02:00 +7°C° 0 mm 3 mps 762 mmHg 69%
03:00 +5°C° 0 mm 3 mps 762 mmHg 68%
04:00 +5°C° 0 mm 3 mps 762 mmHg 68%
05:00 +4°C° 0 mm 3 mps 761 mmHg 67%
06:00 +4°C° 0 mm 3 mps 762 mmHg 66%
07:00 +5°C° 0 mm 3 mps 762 mmHg 65%
08:00 +5°C° 0 mm 3 mps 762 mmHg 64%
09:00 +8°C° 0 mm 3 mps 762 mmHg 56%
10:00 +10°C° 0 mm 3 mps 762 mmHg 48%
11:00 +12°C° 0 mm 3 mps 762 mmHg 39%
12:00 +14°C° 0 mm 3 mps 761 mmHg 37%
13:00 +16°C° 0 mm 3 mps 760 mmHg 34%
14:00 +17°C° 0 mm 2 mps 759 mmHg 31%
15:00 +16°C° 0 mm 2 mps 759 mmHg 36%
16:00 +16°C° 0 mm 3 mps 759 mmHg 40%
17:00 +14°C° 0 mm 3 mps 759 mmHg 45%
18:00 +13°C° 0 mm 3 mps 759 mmHg 47%
19:00 +13°C° 0 mm 3 mps 759 mmHg 50%
20:00 +13°C° 0 mm 4 mps 759 mmHg 52%
21:00 +12°C° 0 mm 4 mps 759 mmHg 54%
22:00 +12°C° 0 mm 3 mps 759 mmHg 56%
23:00 +11°C° 0 mm 3 mps 759 mmHg 59%
Show more